Time,TemperatureF,DewpointF,PressureIn,WindDirection,WindDirectionDegrees,WindSpeedMPH,WindSpeedGustMPH,Humidity,HourlyPrecipIn,Conditions,Clouds,dailyrainin,SoftwareType,DateUTC
2013-01-01 00:06:00,55.8,53.0,29.99,NNE,21,1.0,4.0,90,0.04,,,0.29,weatherlink.com 1.10,2013-01-01 06:06:00,
2013-01-01 00:21:00,55.4,53.0,29.98,NW,305,2.0,4.0,90,0.04,,,0.30,weatherlink.com 1.10,2013-01-01 06:21:00,
2013-01-01 00:36:00,54.6,52.0,29.98,West,280,0.0,2.0,90,0.04,,,0.31,weatherlink.com 1.10,2013-01-01 06:36:00,
2013-01-01 00:51:00,54.4,52.0,29.98,WNW,299,0.0,4.0,90,0.04,,,0.32,weatherlink.com 1.10,2013-01-01 06:51:00,
2013-01-01 01:06:00,54.3,52.0,29.98,North,350,0.0,6.0,90,0.04,,,0.33,weatherlink.com 1.10,2013-01-01 07:06:00,
2013-01-01 01:21:00,54.3,52.0,29.98,ENE,57,0.0,3.0,90,0.04,,,0.34,weatherlink.com 1.10,2013-01-01 07:21:00,
2013-01-01 01:36:00,54.1,51.0,29.99,NW,320,0.0,5.0,90,0.04,,,0.35,weatherlink.com 1.10,2013-01-01 07:36:00,
2013-01-01 01:51:00,54.0,51.0,29.99,NW,315,3.0,3.0,90,0.04,,,0.36,weatherlink.com 1.10,2013-01-01 07:51:00,
2013-01-01 02:06:00,53.9,51.0,29.99,NW,326,0.0,5.0,90,0.04,,,0.37,weatherlink.com 1.10,2013-01-01 08:06:00,
2013-01-01 02:21:00,53.8,51.0,30.00,NW,316,0.0,7.0,90,0.03,,,0.37,weatherlink.com 1.10,2013-01-01 08:21:00,
2013-01-01 02:36:00,53.6,51.0,30.00,North,350,0.0,7.0,90,0.03,,,0.38,weatherlink.com 1.10,2013-01-01 08:36:00,
2013-01-01 02:51:00,53.3,51.0,30.00,WNW,286,0.0,6.0,90,0.03,,,0.39,weatherlink.com 1.10,2013-01-01 08:51:00,
2013-01-01 03:06:00,53.0,50.0,30.00,NNW,337,3.0,6.0,90,0.02,,,0.39,weatherlink.com 1.10,2013-01-01 09:06:00,
2013-01-01 03:21:00,52.6,50.0,30.00,NNW,335,0.0,8.0,90,0.03,,,0.40,weatherlink.com 1.10,2013-01-01 09:21:00,
2013-01-01 03:36:00,52.3,50.0,30.00,WSW,249,0.0,6.0,90,0.02,,,0.40,weatherlink.com 1.10,2013-01-01 09:36:00,
2013-01-01 03:51:00,52.0,49.0,30.01,NNW,345,2.0,9.0,90,0.02,,,0.41,weatherlink.com 1.10,2013-01-01 09:51:00,
2013-01-01 04:06:00,51.8,49.0,30.00,West,281,0.0,6.0,90,0.02,,,0.41,weatherlink.com 1.10,2013-01-01 10:06:00,
2013-01-01 04:21:00,51.6,49.0,29.99,NNW,345,0.0,4.0,90,0.01,,,0.41,weatherlink.com 1.10,2013-01-01 10:21:00,
2013-01-01 04:36:00,51.5,49.0,29.99,NW,304,2.0,3.0,91,0.02,,,0.42,weatherlink.com 1.10,2013-01-01 10:36:00,
2013-01-01 04:51:00,51.3,49.0,29.99,WSW,257,0.0,5.0,91,0.01,,,0.42,weatherlink.com 1.10,2013-01-01 10:51:00,
2013-01-01 05:06:00,51.2,48.0,29.99,WNW,286,0.0,5.0,90,0.02,,,0.43,weatherlink.com 1.10,2013-01-01 11:06:00,
2013-01-01 05:21:00,51.0,48.0,29.99,WSW,238,0.0,5.0,90,0.02,,,0.43,weatherlink.com 1.10,2013-01-01 11:21:00,
2013-01-01 05:36:00,51.0,48.0,29.99,WSW,255,1.0,2.0,90,0.01,,,0.43,weatherlink.com 1.10,2013-01-01 11:36:00,
2013-01-01 05:51:00,50.9,48.0,29.99,WSW,247,0.0,1.0,90,0.02,,,0.44,weatherlink.com 1.10,2013-01-01 11:51:00,
2013-01-01 06:06:00,50.6,48.0,30.00,WNW,294,0.0,4.0,91,0.01,,,0.44,weatherlink.com 1.10,2013-01-01 12:06:00,
2013-01-01 06:21:00,50.6,48.0,30.01,NW,307,0.0,3.0,90,0.01,,,0.44,weatherlink.com 1.10,2013-01-01 12:21:00,
2013-01-01 06:36:00,50.6,48.0,30.01,WNW,286,0.0,2.0,90,0.01,,,0.44,weatherlink.com 1.10,2013-01-01 12:36:00,
2013-01-01 06:51:00,50.5,48.0,30.02,West,272,1.0,5.0,90,0.01,,,0.45,weatherlink.com 1.10,2013-01-01 12:51:00,
2013-01-01 07:06:00,50.4,48.0,30.00,NNW,345,1.0,3.0,91,0.01,,,0.45,weatherlink.com 1.10,2013-01-01 13:06:00,
2013-01-01 07:21:00,50.3,48.0,30.03,WNW,291,0.0,7.0,91,0.01,,,0.45,weatherlink.com 1.10,2013-01-01 13:21:00,
2013-01-01 07:36:00,50.3,48.0,30.05,WNW,299,3.0,5.0,91,0.01,,,0.45,weatherlink.com 1.10,2013-01-01 13:36:00,
2013-01-01 07:51:00,50.3,48.0,30.07,NNW,341,4.0,4.0,91,0.01,,,0.46,weatherlink.com 1.10,2013-01-01 13:51:00,
2013-01-01 08:06:00,50.2,48.0,30.08,WNW,296,2.0,7.0,91,0.01,,,0.46,weatherlink.com 1.10,2013-01-01 14:06:00,
2013-01-01 08:21:00,50.1,48.0,30.08,WNW,297,0.0,3.0,91,0.01,,,0.46,weatherlink.com 1.10,2013-01-01 14:21:00,
2013-01-01 08:36:00,50.0,48.0,30.07,NE,45,0.0,2.0,91,0.01,,,0.46,weatherlink.com 1.10,2013-01-01 14:36:00,
2013-01-01 08:51:00,49.7,47.0,30.08,WNW,301,0.0,4.0,91,0.00,,,0.46,weatherlink.com 1.10,2013-01-01 14:51:00,
2013-01-01 09:06:00,49.5,47.0,30.08,NNW,338,0.0,4.0,91,0.01,,,0.47,weatherlink.com 1.10,2013-01-01 15:06:00,
2013-01-01 09:21:00,49.3,47.0,30.09,NW,320,0.0,5.0,91,0.01,,,0.00,weatherlink.com 1.10,2013-01-01 15:21:00,
2013-01-01 09:36:00,49.1,47.0,30.10,NW,305,0.0,5.0,91,0.01,,,0.00,weatherlink.com 1.10,2013-01-01 15:36:00,
2013-01-01 09:51:00,49.1,47.0,30.10,North,350,3.0,9.0,91,0.01,,,0.00,weatherlink.com 1.10,2013-01-01 15:51:00,
2013-01-01 10:06:00,48.8,46.0,30.11,NNW,338,1.0,14.0,91,0.00,,,0.00,weatherlink.com 1.10,2013-01-01 16:06:00,
2013-01-01 10:21:00,48.7,46.0,30.11,NNW,334,0.0,9.0,91,0.00,,,0.00,weatherlink.com 1.10,2013-01-01 16:21:00,
2013-01-01 10:38:00,48.7,46.0,30.13,WNW,292,2.0,12.0,91,0.00,,,0.00,weatherlink.com 1.10,2013-01-01 16:38:00,
2013-01-01 10:51:00,48.6,46.0,30.13,NNW,330,5.0,9.0,90,0.00,,,0.00,weatherlink.com 1.10,2013-01-01 16:51:00,
2013-01-01 11:06:00,48.5,46.0,30.13,WNW,282,6.0,9.0,90,0.01,,,0.01,weatherlink.com 1.10,2013-01-01 17:06:00,
2013-01-01 11:21:00,48.4,46.0,30.12,WSW,258,2.0,8.0,90,0.01,,,0.01,weatherlink.com 1.10,2013-01-01 17:21:00,
2013-01-01 11:36:00,48.5,46.0,30.11,NNW,332,6.0,8.0,90,0.01,,,0.01,weatherlink.com 1.10,2013-01-01 17:36:00,
2013-01-01 11:51:00,48.8,46.0,30.12,NW,320,4.0,7.0,90,0.01,,,0.01,weatherlink.com 1.10,2013-01-01 17:51:00,
2013-01-01 12:06:00,48.8,46.0,30.10,NNW,336,4.0,5.0,90,0.00,,,0.01,weatherlink.com 1.10,2013-01-01 18:06:00,
2013-01-01 12:21:00,49.2,47.0,30.09,WNW,299,0.0,4.0,90,0.00,,,0.01,weatherlink.com 1.10,2013-01-01 18:21:00,
2013-01-01 12:36:00,49.2,47.0,30.06,South,180,0.0,3.0,90,0.00,,,0.01,weatherlink.com 1.10,2013-01-01 18:36:00,
2013-01-01 12:51:00,49.4,46.0,30.07,West,265,0.0,7.0,89,0.00,,,0.01,weatherlink.com 1.10,2013-01-01 18:51:00,
2013-01-01 13:06:00,49.7,47.0,30.07,WNW,290,3.0,4.0,90,0.01,,,0.02,weatherlink.com 1.10,2013-01-01 19:06:00,
2013-01-01 13:21:00,49.9,47.0,30.06,SSW,192,0.0,0.0,89,0.01,,,0.02,weatherlink.com 1.10,2013-01-01 19:21:00,
2013-01-01 13:36:00,50.2,47.0,30.07,WNW,290,0.0,7.0,88,0.01,,,0.02,weatherlink.com 1.10,2013-01-01 19:36:00,
2013-01-01 13:51:00,50.6,47.0,30.07,NW,323,0.0,6.0,88,0.01,,,0.02,weatherlink.com 1.10,2013-01-01 19:51:00,
2013-01-01 14:06:00,51.0,48.0,30.07,WNW,296,0.0,4.0,88,0.00,,,0.02,weatherlink.com 1.10,2013-01-01 20:06:00,
2013-01-01 14:21:00,51.3,47.0,30.09,North,7,4.0,12.0,85,0.00,,,0.02,weatherlink.com 1.10,2013-01-01 20:21:00,
2013-01-01 14:36:00,51.1,47.0,30.10,WNW,299,2.0,13.0,85,0.00,,,0.02,weatherlink.com 1.10,2013-01-01 20:36:00,
2013-01-01 14:51:00,51.2,47.0,30.09,North,359,3.0,6.0,85,0.00,,,0.02,weatherlink.com 1.10,2013-01-01 20:51:00,
2013-01-01 15:06:00,51.6,47.0,30.09,NNW,345,3.0,11.0,84,0.00,,,0.02,weatherlink.com 1.10,2013-01-01 21:06:00,
2013-01-01 15:21:00,51.2,47.0,30.09,NW,324,0.0,14.0,84,0.01,,,0.03,weatherlink.com 1.10,2013-01-01 21:21:00,
2013-01-01 15:37:00,51.1,47.0,30.10,WNW,292,3.0,10.0,85,0.01,,,0.03,weatherlink.com 1.10,2013-01-01 21:37:00,
2013-01-01 15:52:00,50.7,46.0,30.10,NW,309,11.0,12.0,85,0.01,,,0.03,weatherlink.com 1.10,2013-01-01 21:52:00,
2013-01-01 16:07:00,50.5,46.0,30.11,WNW,292,1.0,6.0,85,0.01,,,0.03,weatherlink.com 1.10,2013-01-01 22:07:00,
2013-01-01 16:22:00,50.2,46.0,30.11,NW,305,6.0,11.0,85,0.00,,,0.03,weatherlink.com 1.10,2013-01-01 22:22:00,
2013-01-01 16:37:00,49.9,46.0,30.11,NW,326,10.0,11.0,85,0.00,,,0.03,weatherlink.com 1.10,2013-01-01 22:37:00,
2013-01-01 16:52:00,49.6,45.0,30.13,WNW,288,4.0,9.0,85,0.00,,,0.03,weatherlink.com 1.10,2013-01-01 22:52:00,
2013-01-01 17:07:00,49.1,45.0,30.13,WNW,287,5.0,7.0,85,0.00,,,0.03,weatherlink.com 1.10,2013-01-01 23:07:00,
2013-01-01 17:22:00,48.6,44.0,30.14,NW,316,7.0,10.0,85,0.00,,,0.03,weatherlink.com 1.10,2013-01-01 23:22:00,
2013-01-01 17:37:00,48.1,44.0,30.15,NW,307,0.0,9.0,84,0.00,,,0.03,weatherlink.com 1.10,2013-01-01 23:37:00,
2013-01-01 17:52:00,47.9,44.0,30.16,NW,316,0.0,7.0,85,0.00,,,0.03,weatherlink.com 1.10,2013-01-01 23:52:00,
2013-01-01 18:07:00,47.8,43.0,30.16,NW,321,0.0,10.0,84,0.00,,,0.03,weatherlink.com 1.10,2013-01-02 00:07:00,
2013-01-01 18:37:00,47.3,42.0,30.16,WNW,293,2.0,11.0,83,0.01,,,0.04,weatherlink.com 1.10,2013-01-02 00:37:00,
2013-01-01 18:52:00,47.0,42.0,30.16,WNW,284,4.0,9.0,83,0.01,,,0.04,weatherlink.com 1.10,2013-01-02 00:52:00,
2013-01-01 19:07:00,46.8,42.0,30.17,NW,316,5.0,13.0,83,0.01,,,0.04,weatherlink.com 1.10,2013-01-02 01:07:00,
2013-01-01 19:22:00,46.6,41.0,30.18,NNW,328,5.0,15.0,82,0.00,,,0.04,weatherlink.com 1.10,2013-01-02 01:22:00,
2013-01-01 19:37:00,46.5,42.0,30.18,WNW,299,2.0,8.0,83,0.00,,,0.04,weatherlink.com 1.10,2013-01-02 01:37:00,
2013-01-01 19:52:00,46.5,42.0,30.18,NW,313,4.0,10.0,83,0.00,,,0.04,weatherlink.com 1.10,2013-01-02 01:52:00,
2013-01-01 20:07:00,46.3,41.0,30.19,NW,324,3.0,5.0,83,0.00,,,0.04,weatherlink.com 1.10,2013-01-02 02:07:00,
2013-01-01 20:22:00,46.3,41.0,30.20,NW,316,4.0,13.0,83,0.00,,,0.04,weatherlink.com 1.10,2013-01-02 02:22:00,
2013-01-01 20:37:00,46.0,41.0,30.18,WNW,303,3.0,10.0,84,0.00,,,0.04,weatherlink.com 1.10,2013-01-02 02:37:00,
2013-01-01 20:52:00,45.8,41.0,30.19,WNW,300,4.0,13.0,84,0.00,,,0.04,weatherlink.com 1.10,2013-01-02 02:52:00,
2013-01-01 21:07:00,45.7,41.0,30.20,NW,307,1.0,6.0,84,0.00,,,0.04,weatherlink.com 1.10,2013-01-02 03:07:00,
2013-01-01 21:22:00,45.7,41.0,30.20,NW,313,3.0,5.0,84,0.00,,,0.04,weatherlink.com 1.10,2013-01-02 03:22:00,
2013-01-01 21:37:00,45.6,41.0,30.21,WNW,286,2.0,4.0,84,0.00,,,0.04,weatherlink.com 1.10,2013-01-02 03:37:00,
2013-01-01 21:52:00,45.5,41.0,30.21,West,273,2.0,5.0,83,0.00,,,0.04,weatherlink.com 1.10,2013-01-02 03:52:00,
2013-01-01 22:07:00,45.3,40.0,30.21,WNW,290,3.0,6.0,82,0.00,,,0.04,weatherlink.com 1.10,2013-01-02 04:07:00,
2013-01-01 22:37:00,45.0,40.0,30.21,West,280,1.0,10.0,81,0.00,,,0.04,weatherlink.com 1.10,2013-01-02 04:37:00,
2013-01-01 22:52:00,44.8,40.0,30.21,WNW,301,4.0,5.0,82,0.00,,,0.04,weatherlink.com 1.10,2013-01-02 04:52:00,
2013-01-01 23:07:00,44.7,40.0,30.21,West,274,0.0,4.0,82,0.00,,,0.04,weatherlink.com 1.10,2013-01-02 05:07:00,
2013-01-01 23:22:00,44.6,39.0,30.21,WNW,286,0.0,4.0,82,0.01,,,0.05,weatherlink.com 1.10,2013-01-02 05:22:00,
2013-01-01 23:37:00,44.4,40.0,30.21,WNW,300,0.0,3.0,84,0.01,,,0.05,weatherlink.com 1.10,2013-01-02 05:37:00,
2013-01-01 23:52:00,44.2,40.0,30.21,WNW,296,0.0,4.0,85,0.01,,,0.05,weatherlink.com 1.10,2013-01-02 05:52:00,